Total_Precipitation_Accumulation
0.07 0.10 0.25 0.25 0.19 0.26 0.45 0.43 0.37 0.31 0.20 0.21 0.27 0.21 0.15 0.16 0.04 0.02 0.00 0.01 0.04 0.07 0.03 0.02 0.04 0.06 0.05 0.04 0.03 0.03 0.02 0.02 0.02 0.02 0.02 0.02 0.02 0.03 0.03 0.01 0.01 0.02 0.03
0.12 0.15 0.28 0.38 0.35 0.22 0.30 0.37 0.31 0.29 0.22 0.19 0.22 0.24 0.18 0.16 0.11 0.05 0.02 0.01 0.04 0.12 0.04 0.13 0.16 0.10 0.08 0.06 0.05 0.02 0.01 0.01 0.01 0.00 0.00 0.00 0.01 0.04 0.04 0.03 0.04 0.03 0.06
0.08 0.16 0.22 0.30 0.40 0.31 0.29 0.27 0.22 0.25 0.20 0.14 0.13 0.16 0.15 0.14 0.11 0.08 0.05 0.05 0.06 0.07 0.03 0.13 0.35 0.20 0.03 0.04 0.03 0.02 0.01 0.01 0.01 0.00 0.00 0.02 0.03 0.06 0.05 0.04 0.05 0.04 0.05
0.10 0.25 0.25 0.31 0.35 0.40 0.38 0.26 0.20 0.25 0.20 0.16 0.12 0.14 0.16 0.17 0.12 0.06 0.07 0.08 0.09 0.06 0.06 0.07 0.27 0.28 0.08 0.05 0.03 0.02 0.01 0.01 0.01 0.00 0.01 0.01 0.03 0.06 0.03 0.03 0.04 0.05 0.03
0.18 0.16 0.32 0.32 0.42 0.46 0.46 0.40 0.21 0.19 0.15 0.13 0.10 0.11 0.11 0.12 0.13 0.10 0.10 0.09 0.06 0.08 0.12 0.10 0.12 0.20 0.09 0.05 0.05 0.02 0.00 0.00 0.00 0.00 0.00 0.00 0.01 0.03 0.03 0.02 0.03 0.03 0.02
0.11 0.19 0.35 0.36 0.44 0.54 0.52 0.50 0.35 0.17 0.14 0.10 0.08 0.09 0.09 0.09 0.08 0.11 0.13 0.09 0.06 0.05 0.11 0.15 0.10 0.08 0.07 0.04 0.02 0.01 0.00 0.00 0.00 0.00 0.00 0.00 0.01 0.03 0.03 0.02 0.04 0.02 0.02
0.05 0.14 0.33 0.43 0.45 0.51 0.66 0.65 0.49 0.31 0.33 0.21 0.13 0.11 0.12 0.12 0.11 0.11 0.12 0.10 0.07 0.07 0.06 0.13 0.17 0.11 0.04 0.04 0.03 0.00 0.00 0.00 0.01 0.00 0.00 0.00 0.03 0.04 0.03 0.02 0.02 0.02 0.02
0.01 0.11 0.31 0.33 0.43 0.60 0.73 0.68 0.69 0.53 0.32 0.23 0.26 0.17 0.13 0.12 0.12 0.15 0.13 0.12 0.14 0.10 0.08 0.06 0.11 0.13 0.08 0.05 0.03 0.01 0.00 0.00 0.00 0.00 0.00 0.01 0.03 0.02 0.04 0.03 0.02 0.02 0.02
0.02 0.03 0.10 0.25 0.38 0.53 0.82 0.90 0.88 0.74 0.56 0.42 0.27 0.24 0.19 0.17 0.17 0.25 0.21 0.19 0.22 0.17 0.11 0.07 0.06 0.10 0.09 0.09 0.05 0.01 0.00 0.00 0.00 0.00 0.00 0.01 0.03 0.02 0.01 0.01 0.03 0.07 0.06
0.01 0.01 0.02 0.10 0.10 0.21 0.52 0.74 0.94 0.82 0.58 0.53 0.44 0.28 0.28 0.22 0.20 0.24 0.26 0.27 0.27 0.27 0.29 0.17 0.11 0.15 0.17 0.10 0.03 0.00 0.00 0.00 0.00 0.00 0.00 0.01 0.02 0.00 0.00 0.01 0.07 0.07 0.05
0.00 0.00 0.01 0.04 0.05 0.04 0.15 0.44 0.77 0.83 0.68 0.59 0.62 0.54 0.31 0.23 0.19 0.23 0.29 0.20 0.17 0.31 0.26 0.23 0.24 0.20 0.17 0.06 0.00 0.00 0.00 0.00 0.00 0.00 0.00 0.02 0.02 0.02 0.01 0.01 0.06 0.15 0.07
0.00 0.00 0.00 0.02 0.02 0.03 0.07 0.21 0.49 0.71 0.73 0.73 0.66 0.57 0.44 0.29 0.22 0.26 0.25 0.26 0.13 0.19 0.21 0.24 0.27 0.18 0.10 0.03 0.00 0.00 0.00 0.00 0.00 0.00 0.00 0.02 0.03 0.01 0.01 0.04 0.13 0.12 0.04
0.00 0.00 0.00 0.00 0.01 0.03 0.07 0.18 0.36 0.75 1.09 1.14 0.99 0.59 0.45 0.57 0.40 0.24 0.25 0.25 0.19 0.15 0.19 0.25 0.26 0.18 0.05 0.01 0.00 0.00 0.00 0.00 0.00 0.00 0.02 0.03 0.03 0.03 0.03 0.02 0.13 0.08 0.03
0.00 0.00 0.00 0.00 0.01 0.01 0.03 0.21 0.61 0.98 1.23 1.40 1.59 1.31 0.93 0.76 0.58 0.42 0.18 0.21 0.16 0.11 0.14 0.17 0.16 0.18 0.14 0.04 0.00 0.00 0.00 0.00 0.00 0.00 0.01 0.02 0.04 0.05 0.01 0.02 0.07 0.07 0.04
0.00 0.00 0.00 0.00 0.00 0.01 0.01 0.10 0.55 1.20 1.35 1.49 1.45 1.20 0.97 0.81 0.69 0.62 0.56 0.27 0.20 0.13 0.12 0.10 0.08 0.11 0.17 0.09 0.01 0.00 0.00 0.00 0.00 0.00 0.00 0.01 0.04 0.02 0.01 0.04 0.05 0.05 0.06
0.00 0.00 0.00 0.00 0.00 0.00 0.01 0.02 0.27 0.98 1.24 1.34 1.41 0.99 0.62 0.74 0.76 0.70 0.53 0.42 0.22 0.14 0.19 0.16 0.16 0.09 0.08 0.07 0.01 0.00 0.00 0.00 0.00 0.00 0.00 0.01 0.02 0.02 0.03 0.04 0.05 0.08 0.07
0.00 0.00 0.00 0.00 0.00 0.00 0.00 0.01 0.09 0.52 1.18 1.05 1.07 1.21 0.67 0.36 0.55 0.75 0.70 0.46 0.27 0.16 0.17 0.30 0.21 0.27 0.21 0.13 0.07 0.02 0.01 0.00 0.01 0.01 0.02 0.02 0.01 0.02 0.03 0.02 0.07 0.10 0.08
0.00 0.00 0.00 0.00 0.00 0.00 0.00 0.01 0.05 0.21 0.95 1.13 0.79 0.98 1.00 0.49 0.30 0.45 0.72 0.56 0.42 0.30 0.24 0.31 0.54 0.32 0.31 0.29 0.26 0.18 0.04 0.02 0.02 0.03 0.03 0.02 0.00 0.01 0.00 0.03 0.07 0.10 0.07
0.00 0.00 0.00 0.00 0.00 0.00 0.00 0.01 0.03 0.13 0.50 1.00 0.89 0.76 0.73 0.69 0.48 0.29 0.36 0.70 0.46 0.48 0.40 0.35 0.45 0.65 0.48 0.28 0.22 0.22 0.21 0.08 0.03 0.03 0.03 0.01 0.00 0.00 0.00 0.01 0.03 0.07 0.07
0.00 0.00 0.00 0.00 0.00 0.00 0.00 0.00 0.01 0.10 0.29 0.73 1.02 0.70 0.76 0.51 0.55 0.47 0.28 0.39 0.79 0.55 0.60 0.45 0.42 0.51 0.71 0.51 0.28 0.19 0.15 0.11 0.04 0.02 0.02 0.00 0.00 0.00 0.00 0.00 0.02 0.04 0.03
0.00 0.00 0.00 0.00 0.00 0.00 0.00 0.00 0.01 0.04 0.29 0.68 1.23 1.17 0.85 0.79 0.45 0.51 0.46 0.29 0.52 0.73 0.48 0.47 0.39 0.44 0.60 0.69 0.59 0.36 0.22 0.10 0.03 0.02 0.02 0.00 0.00 0.00 0.00 0.00 0.02 0.03 0.01
0.00 0.00 0.00 0.00 0.00 0.00 0.00 0.00 0.01 0.03 0.19 0.54 1.07 1.91 1.35 0.91 0.68 0.40 0.56 0.49 0.43 0.55 0.60 0.51 0.46 0.51 0.52 0.61 0.57 0.51 0.41 0.22 0.08 0.02 0.02 0.00 0.00 0.00 0.00 0.00 0.01 0.03 0.01
0.00 0.00 0.00 0.00 0.00 0.00 0.00 0.00 0.00 0.01 0.10 0.32 0.68 1.59 2.14 1.43 0.81 0.54 0.33 0.54 0.60 0.54 0.47 0.49 0.47 0.42 0.47 0.53 0.46 0.38 0.29 0.24 0.11 0.04 0.02 0.01 0.00 0.00 0.00 0.00 0.00 0.02 0.01
0.00 0.00 0.00 0.00 0.00 0.00 0.00 0.01 0.01 0.01 0.07 0.24 0.50 1.19 2.29 1.95 1.48 0.69 0.44 0.29 0.63 0.61 0.47 0.35 0.39 0.36 0.36 0.42 0.41 0.23 0.13 0.12 0.10 0.05 0.03 0.01 0.00 0.00 0.00 0.00 0.00 0.01 0.01
0.01 0.01 0.01 0.01 0.01 0.01 0.01 0.02 0.02 0.01 0.03 0.15 0.34 0.71 1.64 2.08 1.53 1.36 0.69 0.42 0.41 0.67 0.46 0.41 0.40 0.37 0.31 0.27 0.31 0.23 0.22 0.12 0.07 0.03 0.02 0.01 0.00 0.00 0.00 0.00 0.00 0.00 0.01
0.01 0.02 0.02 0.03 0.03 0.02 0.02 0.02 0.03 0.02 0.01 0.05 0.18 0.50 1.03 1.82 1.71 1.40 1.25 0.74 0.45 0.54 0.55 0.41 0.48 0.38 0.29 0.25 0.21 0.21 0.22 0.18 0.13 0.10 0.03 0.00 0.00 0.00 0.00 0.00 0.00 0.00 0.00